Location: Acton
(51.4942°N, 0.2232°W)
Time: 17:22:03
(UTC+00:00)

ATLAS 3B R/B - Pass Details

Date: 18 September 2020
Orbit: 1016 x 1179 km, 63.8° (Epoch: 28 October)

Event Time Altitude Azimuth Distance (km) Brightness Sun altitude
Rises 21:19:55 0° 315° (NW) 3,819 6.9 -27.8°
Reaches altitude 10° 21:22:31 10° 315° (NW) 2,882 5.9 -28.1°
Maximum altitude 21:29:22 89° 226° (SW) 1,092 2.6 -28.8°
Enters shadow 21:30:03 75° 142° (SE) 1,128 2.5 -28.9°
